Location: Waco, TX
(31.5480°N, 97.1670°W)
Time: 13:48:26

ISS - Pass Details

Date: 19 March 2018
Orbit: 403 x 406 km, 51.6° (Epoch: 23 March)

Event Time Altitude Azimuth Distance (km) Brightness Sun altitude
Rises 05:56:07 0° 326° (NNW) 2,324 - -21.5°
Reaches altitude 10° 05:58:26 10° 340° (NNW) 1,461 - -21.0°
Exits shadow 05:59:21 16° 352° (N) 1,174 -1.5 -20.8°
Maximum altitude 06:01:13 25° 38° (NE) 862 -1.7 -20.4°
Drops below altitude 10° 06:03:59 10° 96° (E) 1,454 0.0 -19.8°
Sets 06:06:17 0° 111° (ESE) 2,310 1.0 -19.3°
